Year,Month,Day,Hour,Minute,Value (Times are PST for temperature in C)
2018,01,06,00,00,5.30
2018,01,06,00,01,5.30
2018,01,06,00,02,5.40
2018,01,06,00,03,5.40
2018,01,06,00,04,5.40
2018,01,06,00,05,5.40
2018,01,06,00,06,5.40
2018,01,06,00,07,5.40
2018,01,06,00,08,5.40
2018,01,06,00,09,5.50
2018,01,06,00,10,5.50
2018,01,06,00,11,5.50
2018,01,06,00,12,5.50
2018,01,06,00,13,5.50
2018,01,06,00,14,5.50
2018,01,06,00,15,5.50
2018,01,06,00,16,5.50
2018,01,06,00,17,5.40
2018,01,06,00,18,5.40
2018,01,06,00,19,5.40
2018,01,06,00,20,5.40
2018,01,06,00,21,5.30
2018,01,06,00,22,5.30
2018,01,06,00,23,5.30
2018,01,06,00,24,5.30
2018,01,06,00,25,5.20
2018,01,06,00,26,5.20
2018,01,06,00,27,5.20
2018,01,06,00,28,5.20
2018,01,06,00,29,5.10
2018,01,06,00,30,5.10
2018,01,06,00,31,5.10
2018,01,06,00,32,5.10
2018,01,06,00,33,5.10
2018,01,06,00,34,5.00
2018,01,06,00,35,5.00
2018,01,06,00,36,5.00
2018,01,06,00,37,5.00
2018,01,06,00,38,5.00
2018,01,06,00,39,5.00
2018,01,06,00,40,5.00
2018,01,06,00,41,5.10
2018,01,06,00,42,5.10
2018,01,06,00,43,5.10
2018,01,06,00,44,5.10
2018,01,06,00,45,5.10
2018,01,06,00,46,5.10
2018,01,06,00,47,5.20
2018,01,06,00,48,5.20
2018,01,06,00,49,5.20
2018,01,06,00,50,5.20
2018,01,06,00,51,5.20
2018,01,06,00,52,5.20
2018,01,06,00,53,5.20
2018,01,06,00,54,5.10
2018,01,06,00,55,5.10
2018,01,06,00,56,5.10
2018,01,06,00,57,5.00
2018,01,06,00,58,5.00
2018,01,06,00,59,4.90
2018,01,06,01,00,4.90
2018,01,06,01,01,4.80
2018,01,06,01,02,4.80
2018,01,06,01,03,4.80
2018,01,06,01,04,4.80
2018,01,06,01,05,4.80
2018,01,06,01,06,4.70
2018,01,06,01,07,4.70
2018,01,06,01,08,4.80
2018,01,06,01,09,4.70
2018,01,06,01,10,4.80
2018,01,06,01,11,4.80
2018,01,06,01,12,4.80
2018,01,06,01,13,4.80
2018,01,06,01,14,4.80
2018,01,06,01,15,4.80
2018,01,06,01,16,4.80
2018,01,06,01,17,4.80
2018,01,06,01,18,4.80
2018,01,06,01,19,4.80
2018,01,06,01,20,4.80
2018,01,06,01,21,4.80
2018,01,06,01,22,4.80
2018,01,06,01,23,4.90
2018,01,06,01,24,4.90
2018,01,06,01,25,4.90
2018,01,06,01,26,4.90
2018,01,06,01,27,4.90
2018,01,06,01,28,4.90
2018,01,06,01,29,4.90
2018,01,06,01,30,4.90
2018,01,06,01,31,4.90
2018,01,06,01,32,4.90
2018,01,06,01,33,4.80
2018,01,06,01,34,4.90
2018,01,06,01,35,4.80
2018,01,06,01,36,4.90
2018,01,06,01,37,4.90
2018,01,06,01,38,4.90
2018,01,06,01,39,4.90
2018,01,06,01,40,4.90
2018,01,06,01,41,4.90
2018,01,06,01,42,4.90
2018,01,06,01,43,5.00
2018,01,06,01,44,5.00
2018,01,06,01,45,5.10
2018,01,06,01,46,5.20
2018,01,06,01,47,5.30
2018,01,06,01,48,5.30
2018,01,06,01,49,5.40
2018,01,06,01,50,5.40
2018,01,06,01,51,5.40
2018,01,06,01,52,5.50
2018,01,06,01,53,5.50
2018,01,06,01,54,5.50
2018,01,06,01,55,5.50
2018,01,06,01,56,5.50
2018,01,06,01,57,5.50
2018,01,06,01,58,5.50
2018,01,06,01,59,5.50
2018,01,06,02,00,5.50
2018,01,06,02,01,5.60
2018,01,06,02,02,5.60
2018,01,06,02,03,5.60
2018,01,06,02,04,5.60
2018,01,06,02,05,5.60
2018,01,06,02,06,5.60
2018,01,06,02,07,5.60
2018,01,06,02,08,5.60
2018,01,06,02,09,5.60
2018,01,06,02,10,5.70
2018,01,06,02,11,5.70
2018,01,06,02,12,5.70
2018,01,06,02,13,5.70
2018,01,06,02,14,5.80
2018,01,06,02,15,5.80
2018,01,06,02,16,5.80
2018,01,06,02,17,5.70
2018,01,06,02,18,5.70
2018,01,06,02,19,5.70
2018,01,06,02,20,5.70
2018,01,06,02,21,5.70
2018,01,06,02,22,5.70
2018,01,06,02,23,5.80
2018,01,06,02,24,5.80
2018,01,06,02,25,5.80
2018,01,06,02,26,5.80
2018,01,06,02,27,5.80
2018,01,06,02,28,5.80
2018,01,06,02,29,5.70
2018,01,06,02,30,5.70
2018,01,06,02,31,5.60
2018,01,06,02,32,5.60
2018,01,06,02,33,5.60
2018,01,06,02,34,5.60
2018,01,06,02,35,5.50
2018,01,06,02,36,5.50
2018,01,06,02,37,5.50
2018,01,06,02,38,5.50
2018,01,06,02,39,5.50
2018,01,06,02,40,5.50
2018,01,06,02,41,5.50
2018,01,06,02,42,5.50
2018,01,06,02,43,5.50
2018,01,06,02,44,5.50
2018,01,06,02,45,5.50
2018,01,06,02,46,5.50
2018,01,06,02,47,5.60
2018,01,06,02,48,5.60
2018,01,06,02,49,5.50
2018,01,06,02,50,5.50
2018,01,06,02,51,5.50
2018,01,06,02,52,5.50
2018,01,06,02,53,5.50
2018,01,06,02,54,5.40
2018,01,06,02,55,5.40
2018,01,06,02,56,5.40
2018,01,06,02,57,5.40
2018,01,06,02,58,5.40
2018,01,06,02,59,5.40
2018,01,06,03,00,5.30
2018,01,06,03,01,5.30
2018,01,06,03,02,5.30
2018,01,06,03,03,5.30
2018,01,06,03,04,5.30
2018,01,06,03,05,5.30
2018,01,06,03,06,5.30
2018,01,06,03,07,5.30
2018,01,06,03,08,5.20
2018,01,06,03,09,5.20
2018,01,06,03,10,5.20
2018,01,06,03,11,5.20
2018,01,06,03,12,5.20
2018,01,06,03,13,5.20
2018,01,06,03,14,5.20
2018,01,06,03,15,5.20
2018,01,06,03,16,5.20
2018,01,06,03,17,5.20
2018,01,06,03,18,5.20
2018,01,06,03,19,5.20
2018,01,06,03,20,5.10
2018,01,06,03,21,5.10
2018,01,06,03,22,5.10
2018,01,06,03,23,5.10
2018,01,06,03,24,5.10
2018,01,06,03,25,5.10
2018,01,06,03,26,5.10
2018,01,06,03,27,5.10
2018,01,06,03,28,5.10
2018,01,06,03,29,5.10
2018,01,06,03,30,5.10
2018,01,06,03,31,5.00
2018,01,06,03,32,5.00
2018,01,06,03,33,5.00
2018,01,06,03,34,5.00
2018,01,06,03,35,5.00
2018,01,06,03,36,5.00
2018,01,06,03,37,5.00
2018,01,06,03,38,4.90
2018,01,06,03,39,4.90
2018,01,06,03,40,4.90
2018,01,06,03,41,4.90
2018,01,06,03,42,4.90
2018,01,06,03,43,4.90
2018,01,06,03,44,4.80
2018,01,06,03,45,4.80
2018,01,06,03,46,4.80
2018,01,06,03,47,4.80
2018,01,06,03,48,4.80
2018,01,06,03,49,4.80
2018,01,06,03,50,4.80
2018,01,06,03,51,4.80
2018,01,06,03,52,4.80
2018,01,06,03,53,4.80
2018,01,06,03,54,4.80
2018,01,06,03,55,4.70
2018,01,06,03,56,4.70
2018,01,06,03,57,4.70
2018,01,06,03,58,4.70
2018,01,06,03,59,4.70
2018,01,06,04,00,4.70
2018,01,06,04,01,4.70
2018,01,06,04,02,4.70
2018,01,06,04,03,4.70
2018,01,06,04,04,4.70
2018,01,06,04,05,4.60
2018,01,06,04,06,4.60
2018,01,06,04,07,4.60
2018,01,06,04,08,4.60
2018,01,06,04,09,4.60
2018,01,06,04,10,4.60
2018,01,06,04,11,4.60
2018,01,06,04,12,4.60
2018,01,06,04,13,4.60
2018,01,06,04,14,4.60
2018,01,06,04,15,4.70
2018,01,06,04,16,4.70
2018,01,06,04,17,4.70
2018,01,06,04,18,4.70
2018,01,06,04,19,4.70
2018,01,06,04,20,4.70
2018,01,06,04,21,4.70
2018,01,06,04,22,4.70
2018,01,06,04,23,4.70
2018,01,06,04,24,4.70
2018,01,06,04,25,4.70
2018,01,06,04,26,4.60
2018,01,06,04,27,4.60
2018,01,06,04,28,4.50
2018,01,06,04,29,4.50
2018,01,06,04,30,4.50
2018,01,06,04,31,4.40
2018,01,06,04,32,4.40
2018,01,06,04,33,4.40
2018,01,06,04,34,4.30
2018,01,06,04,35,4.30
2018,01,06,04,36,4.30
2018,01,06,04,37,4.20
2018,01,06,04,38,4.20
2018,01,06,04,39,4.20
2018,01,06,04,40,4.20
2018,01,06,04,41,4.10
2018,01,06,04,42,4.10
2018,01,06,04,43,4.10
2018,01,06,04,44,4.10
2018,01,06,04,45,4.10
2018,01,06,04,46,4.10
2018,01,06,04,47,4.10
2018,01,06,04,48,4.20
2018,01,06,04,49,4.20
2018,01,06,04,50,4.20
2018,01,06,04,51,4.20
2018,01,06,04,52,4.30
2018,01,06,04,53,4.30
2018,01,06,04,54,4.30
2018,01,06,04,55,4.40
2018,01,06,04,56,4.40
2018,01,06,04,57,4.50
2018,01,06,04,58,4.50
2018,01,06,04,59,4.50
2018,01,06,05,00,4.50
2018,01,06,05,01,4.50
2018,01,06,05,02,4.60
2018,01,06,05,03,4.60
2018,01,06,05,04,4.60
2018,01,06,05,05,4.50
2018,01,06,05,06,4.50
2018,01,06,05,07,4.50
2018,01,06,05,08,4.50
2018,01,06,05,09,4.50
2018,01,06,05,10,4.50
2018,01,06,05,11,4.50
2018,01,06,05,12,4.50
2018,01,06,05,13,4.40
2018,01,06,05,14,4.40
2018,01,06,05,15,4.40
2018,01,06,05,16,4.40
2018,01,06,05,17,4.30
2018,01,06,05,18,4.30
2018,01,06,05,19,4.30
2018,01,06,05,20,4.20
2018,01,06,05,21,4.20
2018,01,06,05,22,4.20
2018,01,06,05,23,4.20
2018,01,06,05,24,4.20
2018,01,06,05,25,4.20
2018,01,06,05,26,4.20
2018,01,06,05,27,4.20
2018,01,06,05,28,4.20
2018,01,06,05,29,4.20
2018,01,06,05,30,4.30
2018,01,06,05,31,4.30
2018,01,06,05,32,4.30
2018,01,06,05,33,4.30
2018,01,06,05,34,4.30
2018,01,06,05,35,4.30
2018,01,06,05,36,4.30
2018,01,06,05,37,4.40
2018,01,06,05,38,4.40
2018,01,06,05,39,4.40
2018,01,06,05,40,4.40
2018,01,06,05,41,4.40
2018,01,06,05,42,4.40
2018,01,06,05,43,4.40
2018,01,06,05,44,4.40
2018,01,06,05,45,4.40
2018,01,06,05,46,4.40
2018,01,06,05,47,4.30
2018,01,06,05,48,4.30
2018,01,06,05,49,4.30
2018,01,06,05,50,4.30
2018,01,06,05,51,4.30
2018,01,06,05,52,4.30
2018,01,06,05,53,4.30
2018,01,06,05,54,4.30
2018,01,06,05,55,4.30
2018,01,06,05,56,4.30
2018,01,06,05,57,4.30
2018,01,06,05,58,4.30
2018,01,06,05,59,4.20
2018,01,06,06,00,4.20
2018,01,06,06,01,4.20
2018,01,06,06,02,4.20
2018,01,06,06,03,4.20
2018,01,06,06,04,4.20
2018,01,06,06,05,4.20
2018,01,06,06,06,4.20
2018,01,06,06,07,4.20
2018,01,06,06,08,4.20
2018,01,06,06,09,4.20
2018,01,06,06,10,4.20
2018,01,06,06,11,4.20
2018,01,06,06,12,4.20
2018,01,06,06,13,4.20
2018,01,06,06,14,4.20
2018,01,06,06,15,4.20
2018,01,06,06,16,4.20
2018,01,06,06,17,4.10
2018,01,06,06,18,4.10
2018,01,06,06,19,4.10
2018,01,06,06,20,4.10
2018,01,06,06,21,4.10
2018,01,06,06,22,4.10
2018,01,06,06,23,4.10
2018,01,06,06,24,4.10
2018,01,06,06,25,4.10
2018,01,06,06,26,4.10
2018,01,06,06,27,4.10
2018,01,06,06,28,4.10
2018,01,06,06,29,4.10
2018,01,06,06,30,4.10
2018,01,06,06,31,4.10
2018,01,06,06,32,4.10
2018,01,06,06,33,4.10
2018,01,06,06,34,4.10
2018,01,06,06,35,4.10
2018,01,06,06,36,4.00
2018,01,06,06,37,4.00
2018,01,06,06,38,4.00
2018,01,06,06,39,3.90
2018,01,06,06,40,3.90
2018,01,06,06,41,3.80
2018,01,06,06,42,3.80
2018,01,06,06,43,3.80
2018,01,06,06,44,3.70
2018,01,06,06,45,3.70
2018,01,06,06,46,3.70
2018,01,06,06,47,3.60
2018,01,06,06,48,3.60
2018,01,06,06,49,3.60
2018,01,06,06,50,3.50
2018,01,06,06,51,3.50
2018,01,06,06,52,3.50
2018,01,06,06,53,3.40
2018,01,06,06,54,3.40
2018,01,06,06,55,3.40
2018,01,06,06,56,3.30
2018,01,06,06,57,3.30
2018,01,06,06,58,3.30
2018,01,06,06,59,3.30
2018,01,06,07,00,3.20
2018,01,06,07,01,3.20
2018,01,06,07,02,3.20
2018,01,06,07,03,3.20
2018,01,06,07,04,3.20
2018,01,06,07,05,3.20
2018,01,06,07,06,3.10
2018,01,06,07,07,3.10
2018,01,06,07,08,3.10
2018,01,06,07,09,3.10
2018,01,06,07,10,3.10
2018,01,06,07,11,3.10
2018,01,06,07,12,3.10
2018,01,06,07,13,3.00
2018,01,06,07,14,3.00
2018,01,06,07,15,3.00
2018,01,06,07,16,3.00
2018,01,06,07,17,3.00
2018,01,06,07,18,3.00
2018,01,06,07,19,3.10
2018,01,06,07,20,3.10
2018,01,06,07,21,3.10
2018,01,06,07,22,3.10
2018,01,06,07,23,3.10
2018,01,06,07,24,3.10
2018,01,06,07,25,3.10
2018,01,06,07,26,3.10
2018,01,06,07,27,3.10
2018,01,06,07,28,3.10
2018,01,06,07,29,3.10
2018,01,06,07,30,3.10
2018,01,06,07,31,3.10
2018,01,06,07,32,3.10
2018,01,06,07,33,3.10
2018,01,06,07,34,3.10
2018,01,06,07,35,3.10
2018,01,06,07,36,3.10
2018,01,06,07,37,3.10
2018,01,06,07,38,3.10
2018,01,06,07,39,3.10
2018,01,06,07,40,3.10
2018,01,06,07,41,3.10
2018,01,06,07,42,3.10
2018,01,06,07,43,3.10
2018,01,06,07,44,3.10
2018,01,06,07,45,3.10
2018,01,06,07,46,3.10
2018,01,06,07,47,3.10
2018,01,06,07,48,3.20
2018,01,06,07,49,3.10
2018,01,06,07,50,3.10
2018,01,06,07,51,3.20
2018,01,06,07,52,3.20
2018,01,06,07,53,3.20
2018,01,06,07,54,3.20
2018,01,06,07,55,3.30
2018,01,06,07,56,3.40
2018,01,06,07,57,3.40
2018,01,06,07,58,3.50
2018,01,06,07,59,3.50
2018,01,06,08,00,3.50
2018,01,06,08,01,3.60
2018,01,06,08,02,3.60
2018,01,06,08,03,3.60
2018,01,06,08,04,3.60
2018,01,06,08,05,3.60
2018,01,06,08,06,3.50
2018,01,06,08,07,3.50
2018,01,06,08,08,3.50
2018,01,06,08,09,3.40
2018,01,06,08,10,3.40
2018,01,06,08,11,3.40
2018,01,06,08,12,3.40
2018,01,06,08,13,3.40
2018,01,06,08,14,3.30
2018,01,06,08,15,3.30
2018,01,06,08,16,3.30
2018,01,06,08,17,3.30
2018,01,06,08,18,3.30
2018,01,06,08,19,3.30
2018,01,06,08,20,3.30
2018,01,06,08,21,3.30
2018,01,06,08,22,3.30
2018,01,06,08,23,3.30
2018,01,06,08,24,3.30
2018,01,06,08,25,3.40
2018,01,06,08,26,3.40
2018,01,06,08,27,3.40
2018,01,06,08,28,3.50
2018,01,06,08,29,3.50
2018,01,06,08,30,3.50
2018,01,06,08,31,3.50
2018,01,06,08,32,3.60
2018,01,06,08,33,3.60
2018,01,06,08,34,3.60
2018,01,06,08,35,3.70
2018,01,06,08,36,3.70
2018,01,06,08,37,3.90
2018,01,06,08,38,4.00
2018,01,06,08,39,4.10
2018,01,06,08,40,4.10
2018,01,06,08,41,4.10
2018,01,06,08,42,4.10
2018,01,06,08,43,4.20
2018,01,06,08,44,4.20
2018,01,06,08,45,4.20
2018,01,06,08,46,4.20
2018,01,06,08,47,4.30
2018,01,06,08,48,4.30
2018,01,06,08,49,4.20
2018,01,06,08,50,4.20
2018,01,06,08,51,4.20
2018,01,06,08,52,4.20
2018,01,06,08,53,4.20
2018,01,06,08,54,4.20
2018,01,06,08,55,4.10
2018,01,06,08,56,4.10
2018,01,06,08,57,4.10
2018,01,06,08,58,4.10
2018,01,06,08,59,4.10
2018,01,06,09,00,4.10
2018,01,06,09,01,4.10
2018,01,06,09,02,4.10
2018,01,06,09,03,4.10
2018,01,06,09,04,4.10
2018,01,06,09,05,4.10
2018,01,06,09,06,4.10
2018,01,06,09,07,4.10
2018,01,06,09,08,4.10
2018,01,06,09,09,4.10
2018,01,06,09,10,4.10
2018,01,06,09,11,4.10
2018,01,06,09,12,4.10
2018,01,06,09,13,4.20
2018,01,06,09,14,4.20
2018,01,06,09,15,4.20
2018,01,06,09,16,4.30
2018,01,06,09,17,4.40
2018,01,06,09,18,4.40
2018,01,06,09,19,4.50
2018,01,06,09,20,4.50
2018,01,06,09,21,4.60
2018,01,06,09,22,4.60
2018,01,06,09,23,4.70
2018,01,06,09,24,4.70
2018,01,06,09,25,4.70
2018,01,06,09,26,4.80
2018,01,06,09,27,4.80
2018,01,06,09,28,4.80
2018,01,06,09,29,4.90
2018,01,06,09,30,4.90
2018,01,06,09,31,4.90
2018,01,06,09,32,4.90
2018,01,06,09,33,5.00
2018,01,06,09,34,5.00
2018,01,06,09,35,5.00
2018,01,06,09,36,5.00
2018,01,06,09,37,5.00
2018,01,06,09,38,5.10
2018,01,06,09,39,5.00
2018,01,06,09,40,5.00
2018,01,06,09,41,5.00
2018,01,06,09,42,5.10
2018,01,06,09,43,5.10
2018,01,06,09,44,5.10
2018,01,06,09,45,5.10
2018,01,06,09,46,5.10
2018,01,06,09,47,5.10
2018,01,06,09,48,5.10
2018,01,06,09,49,5.10
2018,01,06,09,50,5.20
2018,01,06,09,51,5.20
2018,01,06,09,52,5.20
2018,01,06,09,53,5.20
2018,01,06,09,54,5.30
2018,01,06,09,55,5.30
2018,01,06,09,56,5.30
2018,01,06,09,57,5.40
2018,01,06,09,58,5.40
2018,01,06,09,59,5.40
2018,01,06,10,00,5.40
2018,01,06,10,01,5.40
2018,01,06,10,02,5.40
2018,01,06,10,03,5.40
2018,01,06,10,04,5.40
2018,01,06,10,05,5.40
2018,01,06,10,06,5.50
2018,01,06,10,07,5.50
2018,01,06,10,08,5.50
2018,01,06,10,09,5.60
2018,01,06,10,10,5.60
2018,01,06,10,11,5.60
2018,01,06,10,12,5.60
2018,01,06,10,13,5.60
2018,01,06,10,14,5.70
2018,01,06,10,15,5.70
2018,01,06,10,16,5.70
2018,01,06,10,17,5.70
2018,01,06,10,18,5.70
2018,01,06,10,19,5.70
2018,01,06,10,20,5.70
2018,01,06,10,21,5.80
2018,01,06,10,22,5.80
2018,01,06,10,23,5.80
2018,01,06,10,24,5.80
2018,01,06,10,25,5.80
2018,01,06,10,26,5.80
2018,01,06,10,27,5.80
2018,01,06,10,28,5.90
2018,01,06,10,29,5.90
2018,01,06,10,30,5.90
2018,01,06,10,31,5.90
2018,01,06,10,32,5.90
2018,01,06,10,33,5.90
2018,01,06,10,34,5.90
2018,01,06,10,35,6.00
2018,01,06,10,36,6.00
2018,01,06,10,37,6.00
2018,01,06,10,38,6.10
2018,01,06,10,39,6.10
2018,01,06,10,40,6.10
2018,01,06,10,41,6.10
2018,01,06,10,42,6.10
2018,01,06,10,43,6.10
2018,01,06,10,44,6.10
2018,01,06,10,45,6.20
2018,01,06,10,46,6.20
2018,01,06,10,47,6.20
2018,01,06,10,48,6.20
2018,01,06,10,49,6.30
2018,01,06,10,50,6.30
2018,01,06,10,51,6.30
2018,01,06,10,52,6.30
2018,01,06,10,53,6.30
2018,01,06,10,54,6.40
2018,01,06,10,55,6.40
2018,01,06,10,56,6.40
2018,01,06,10,57,6.40
2018,01,06,10,58,6.40
2018,01,06,10,59,6.50
2018,01,06,11,00,6.50
2018,01,06,11,01,6.50
2018,01,06,11,02,6.60
2018,01,06,11,03,6.60
2018,01,06,11,04,6.60
2018,01,06,11,05,6.70
2018,01,06,11,06,6.70
2018,01,06,11,07,6.70
2018,01,06,11,08,6.80
2018,01,06,11,09,6.80
2018,01,06,11,10,6.80
2018,01,06,11,11,6.80
2018,01,06,11,12,6.90
2018,01,06,11,13,6.90
2018,01,06,11,14,6.90
2018,01,06,11,15,6.90
2018,01,06,11,16,6.90
2018,01,06,11,17,6.90
2018,01,06,11,18,7.00
2018,01,06,11,19,7.00
2018,01,06,11,20,7.00
2018,01,06,11,21,7.00
2018,01,06,11,22,7.00
2018,01,06,11,23,7.10
2018,01,06,11,24,7.10
2018,01,06,11,25,7.10
2018,01,06,11,26,7.10
2018,01,06,11,27,7.10
2018,01,06,11,28,7.10
2018,01,06,11,29,7.20
2018,01,06,11,30,7.20
2018,01,06,11,31,7.20
2018,01,06,11,32,7.20
2018,01,06,11,33,7.20
2018,01,06,11,34,7.20
2018,01,06,11,35,7.20
2018,01,06,11,36,7.20
2018,01,06,11,37,7.20
2018,01,06,11,38,7.20
2018,01,06,11,39,7.20
2018,01,06,11,40,7.20
2018,01,06,11,41,7.20
2018,01,06,11,42,7.20
2018,01,06,11,43,7.20
2018,01,06,11,44,7.30
2018,01,06,11,45,7.30
2018,01,06,11,46,7.30
2018,01,06,11,47,7.30
2018,01,06,11,48,7.30
2018,01,06,11,49,7.40
2018,01,06,11,50,7.40
2018,01,06,11,51,7.40
2018,01,06,11,52,7.40
2018,01,06,11,53,7.50
2018,01,06,11,54,7.50
2018,01,06,11,55,7.50
2018,01,06,11,56,7.50
2018,01,06,11,57,7.50
2018,01,06,11,58,7.50
2018,01,06,11,59,7.50
2018,01,06,12,00,7.50
2018,01,06,12,01,7.50
2018,01,06,12,02,7.50
2018,01,06,12,03,7.50
2018,01,06,12,04,7.50
2018,01,06,12,05,7.50
2018,01,06,12,06,7.50
2018,01,06,12,07,7.60
2018,01,06,12,08,7.60
2018,01,06,12,09,7.60
2018,01,06,12,10,7.60
2018,01,06,12,11,7.60
2018,01,06,12,12,7.60
2018,01,06,12,13,7.60
2018,01,06,12,14,7.60
2018,01,06,12,15,7.60
2018,01,06,12,16,7.70
2018,01,06,12,17,7.70
2018,01,06,12,18,7.70
2018,01,06,12,19,7.70
2018,01,06,12,20,7.70
2018,01,06,12,21,7.70
2018,01,06,12,22,7.70
2018,01,06,12,23,7.70
2018,01,06,12,24,7.80
2018,01,06,12,25,7.80
2018,01,06,12,26,7.80
2018,01,06,12,27,7.80
2018,01,06,12,28,7.80
2018,01,06,12,29,7.80
2018,01,06,12,30,7.80
2018,01,06,12,31,7.80
2018,01,06,12,32,7.90
2018,01,06,12,33,7.90
2018,01,06,12,34,7.90
2018,01,06,12,35,7.90
2018,01,06,12,36,7.90
2018,01,06,12,37,7.90
2018,01,06,12,38,8.00
2018,01,06,12,39,8.00
2018,01,06,12,40,8.00
2018,01,06,12,41,8.00
2018,01,06,12,42,8.00
2018,01,06,12,43,8.00
2018,01,06,12,44,8.00
2018,01,06,12,45,8.00
2018,01,06,12,46,8.00
2018,01,06,12,47,8.00
2018,01,06,12,48,8.10
2018,01,06,12,49,8.10
2018,01,06,12,50,8.10
2018,01,06,12,51,8.10
2018,01,06,12,52,8.10
2018,01,06,12,53,8.10
2018,01,06,12,54,8.10
2018,01,06,12,55,8.10
2018,01,06,12,56,8.10
2018,01,06,12,57,8.00
2018,01,06,12,58,8.00
2018,01,06,12,59,8.00
2018,01,06,13,00,8.00
2018,01,06,13,01,8.00
2018,01,06,13,02,8.00
2018,01,06,13,03,8.00
2018,01,06,13,04,8.00
2018,01,06,13,05,8.00
2018,01,06,13,06,8.00
2018,01,06,13,07,8.00
2018,01,06,13,08,8.00
2018,01,06,13,09,8.00
2018,01,06,13,10,8.00
2018,01,06,13,11,8.00
2018,01,06,13,12,8.10
2018,01,06,13,13,8.10
2018,01,06,13,14,8.10
2018,01,06,13,15,8.10
2018,01,06,13,16,8.10
2018,01,06,13,17,8.10
2018,01,06,13,18,8.10
2018,01,06,13,19,8.20
2018,01,06,13,20,8.20
2018,01,06,13,21,8.20
2018,01,06,13,22,8.10
2018,01,06,13,23,8.20
2018,01,06,13,24,8.20
2018,01,06,13,25,8.20
2018,01,06,13,26,8.20
2018,01,06,13,27,8.20
2018,01,06,13,28,8.20
2018,01,06,13,29,8.20
2018,01,06,13,30,8.20
2018,01,06,13,31,8.20
2018,01,06,13,32,8.20
2018,01,06,13,33,8.20
2018,01,06,13,34,8.10
2018,01,06,13,35,8.10
2018,01,06,13,36,8.10
2018,01,06,13,37,8.10
2018,01,06,13,38,8.10
2018,01,06,13,39,8.10
2018,01,06,13,40,8.10
2018,01,06,13,41,8.10
2018,01,06,13,42,8.10
2018,01,06,13,43,8.10
2018,01,06,13,44,8.10
2018,01,06,13,45,8.20
2018,01,06,13,46,8.20
2018,01,06,13,47,8.20
2018,01,06,13,48,8.20
2018,01,06,13,49,8.20
2018,01,06,13,50,8.20
2018,01,06,13,51,8.20
2018,01,06,13,52,8.20
2018,01,06,13,53,8.20
2018,01,06,13,54,8.20
2018,01,06,13,55,8.20
2018,01,06,13,56,8.20
2018,01,06,13,57,8.20
2018,01,06,13,58,8.20
2018,01,06,13,59,8.20
2018,01,06,14,00,8.10
2018,01,06,14,01,8.10
2018,01,06,14,02,8.10
2018,01,06,14,03,8.10
2018,01,06,14,04,8.10
2018,01,06,14,05,8.00
2018,01,06,14,06,8.00
2018,01,06,14,07,8.00
2018,01,06,14,08,8.00
2018,01,06,14,09,8.00
2018,01,06,14,10,7.90
2018,01,06,14,11,7.90
2018,01,06,14,12,7.90
2018,01,06,14,13,7.90
2018,01,06,14,14,7.90
2018,01,06,14,15,7.90
2018,01,06,14,16,7.90
2018,01,06,14,17,7.80
2018,01,06,14,18,7.80
2018,01,06,14,19,7.80
2018,01,06,14,20,7.80
2018,01,06,14,21,7.70
2018,01,06,14,22,7.70
2018,01,06,14,23,7.70
2018,01,06,14,24,7.70
2018,01,06,14,25,7.70
2018,01,06,14,26,7.70
2018,01,06,14,27,7.70
2018,01,06,14,28,7.70
2018,01,06,14,29,7.70
2018,01,06,14,30,7.70
2018,01,06,14,31,7.70
2018,01,06,14,32,7.70
2018,01,06,14,33,7.70
2018,01,06,14,34,7.60
2018,01,06,14,35,7.60
2018,01,06,14,36,7.60
2018,01,06,14,37,7.60
2018,01,06,14,38,7.60
2018,01,06,14,39,7.60
2018,01,06,14,40,7.60
2018,01,06,14,41,7.60
2018,01,06,14,42,7.60
2018,01,06,14,43,7.60
2018,01,06,14,44,7.60
2018,01,06,14,45,7.60
2018,01,06,14,46,7.50
2018,01,06,14,47,7.50
2018,01,06,14,48,7.50
2018,01,06,14,49,7.50
2018,01,06,14,50,7.50
2018,01,06,14,51,7.50
2018,01,06,14,52,7.50
2018,01,06,14,53,7.50
2018,01,06,14,54,7.50
2018,01,06,14,55,7.50
2018,01,06,14,56,7.50
2018,01,06,14,57,7.50
2018,01,06,14,58,7.50
2018,01,06,14,59,7.50
2018,01,06,15,00,7.50
2018,01,06,15,01,7.50
2018,01,06,15,02,7.50
2018,01,06,15,03,7.50
2018,01,06,15,04,7.50
2018,01,06,15,05,7.50
2018,01,06,15,06,7.50
2018,01,06,15,07,7.50
2018,01,06,15,08,7.50
2018,01,06,15,09,7.50
2018,01,06,15,10,7.50
2018,01,06,15,11,7.50
2018,01,06,15,12,7.50
2018,01,06,15,13,7.50
2018,01,06,15,14,7.50
2018,01,06,15,15,7.50
2018,01,06,15,16,7.50
2018,01,06,15,17,7.40
2018,01,06,15,18,7.40
2018,01,06,15,19,7.40
2018,01,06,15,20,7.40
2018,01,06,15,21,7.40
2018,01,06,15,22,7.40
2018,01,06,15,23,7.40
2018,01,06,15,24,7.40
2018,01,06,15,25,7.40
2018,01,06,15,26,7.30
2018,01,06,15,27,7.30
2018,01,06,15,28,7.30
2018,01,06,15,29,7.30
2018,01,06,15,30,7.30
2018,01,06,15,31,7.30
2018,01,06,15,32,7.30
2018,01,06,15,33,7.30
2018,01,06,15,34,7.30
2018,01,06,15,35,7.30
2018,01,06,15,36,7.30
2018,01,06,15,37,7.30
2018,01,06,15,38,7.30
2018,01,06,15,39,7.30
2018,01,06,15,40,7.30
2018,01,06,15,41,7.20
2018,01,06,15,42,7.20
2018,01,06,15,43,7.20
2018,01,06,15,44,7.20
2018,01,06,15,45,7.20
2018,01,06,15,46,7.20
2018,01,06,15,47,7.20
2018,01,06,15,48,7.20
2018,01,06,15,49,7.20
2018,01,06,15,50,7.20
2018,01,06,15,51,7.20
2018,01,06,15,52,7.20
2018,01,06,15,53,7.20
2018,01,06,15,54,7.20
2018,01,06,15,55,7.20
2018,01,06,15,56,7.20
2018,01,06,15,57,7.20
2018,01,06,15,58,7.20
2018,01,06,15,59,7.10
2018,01,06,16,00,7.10
2018,01,06,16,01,7.10
2018,01,06,16,02,7.10
2018,01,06,16,03,7.10
2018,01,06,16,04,7.10
2018,01,06,16,05,7.10
2018,01,06,16,06,7.10
2018,01,06,16,07,7.10
2018,01,06,16,08,7.10
2018,01,06,16,09,7.10
2018,01,06,16,10,7.00
2018,01,06,16,11,7.00
2018,01,06,16,12,7.00
2018,01,06,16,13,7.00
2018,01,06,16,14,7.00
2018,01,06,16,15,6.90
2018,01,06,16,16,6.90
2018,01,06,16,17,6.90
2018,01,06,16,18,6.90
2018,01,06,16,19,6.90
2018,01,06,16,20,6.90
2018,01,06,16,21,6.90
2018,01,06,16,22,6.80
2018,01,06,16,23,6.80
2018,01,06,16,24,6.80
2018,01,06,16,25,6.80
2018,01,06,16,26,6.80
2018,01,06,16,27,6.70
2018,01,06,16,28,6.70
2018,01,06,16,29,6.70
2018,01,06,16,30,6.70
2018,01,06,16,31,6.70
2018,01,06,16,32,6.70
2018,01,06,16,33,6.60
2018,01,06,16,34,6.60
2018,01,06,16,35,6.60
2018,01,06,16,36,6.60
2018,01,06,16,37,6.60
2018,01,06,16,38,6.50
2018,01,06,16,39,6.50
2018,01,06,16,40,6.50
2018,01,06,16,41,6.40
2018,01,06,16,42,6.40
2018,01,06,16,43,6.40
2018,01,06,16,44,6.40
2018,01,06,16,45,6.40
2018,01,06,16,46,6.40
2018,01,06,16,47,6.30
2018,01,06,16,48,6.30
2018,01,06,16,49,6.30
2018,01,06,16,50,6.30
2018,01,06,16,51,6.30
2018,01,06,16,52,6.30
2018,01,06,16,53,6.20
2018,01,06,16,54,6.20
2018,01,06,16,55,6.20
2018,01,06,16,56,6.20
2018,01,06,16,57,6.20
2018,01,06,16,58,6.20
2018,01,06,16,59,6.20
2018,01,06,17,00,6.20
2018,01,06,17,01,6.20
2018,01,06,17,02,6.20
2018,01,06,17,03,6.10
2018,01,06,17,04,6.10
2018,01,06,17,05,6.10
2018,01,06,17,06,6.10
2018,01,06,17,07,6.10
2018,01,06,17,08,6.10
2018,01,06,17,09,6.10
2018,01,06,17,10,6.10
2018,01,06,17,11,6.10
2018,01,06,17,12,6.10
2018,01,06,17,13,6.10
2018,01,06,17,14,6.10
2018,01,06,17,15,6.10
2018,01,06,17,16,6.10
2018,01,06,17,17,6.10
2018,01,06,17,18,6.00
2018,01,06,17,19,6.10
2018,01,06,17,20,6.10
2018,01,06,17,21,6.10
2018,01,06,17,22,6.10
2018,01,06,17,23,6.10
2018,01,06,17,24,6.20
2018,01,06,17,25,6.20
2018,01,06,17,26,6.20
2018,01,06,17,27,6.20
2018,01,06,17,28,6.20
2018,01,06,17,29,6.30
2018,01,06,17,30,6.30
2018,01,06,17,31,6.30
2018,01,06,17,32,6.30
2018,01,06,17,33,6.30
2018,01,06,17,34,6.30
2018,01,06,17,35,6.30
2018,01,06,17,36,6.30
2018,01,06,17,37,6.30
2018,01,06,17,38,6.40
2018,01,06,17,39,6.40
2018,01,06,17,40,6.40
2018,01,06,17,41,6.40
2018,01,06,17,42,6.40
2018,01,06,17,43,6.40
2018,01,06,17,44,6.40
2018,01,06,17,45,6.40
2018,01,06,17,46,6.40
2018,01,06,17,47,6.40
2018,01,06,17,48,6.40
2018,01,06,17,49,6.40
2018,01,06,17,50,6.40
2018,01,06,17,51,6.40
2018,01,06,17,52,6.40
2018,01,06,17,53,6.40
2018,01,06,17,54,6.40
2018,01,06,17,55,6.40
2018,01,06,17,56,6.40
2018,01,06,17,57,6.40
2018,01,06,17,58,6.40
2018,01,06,17,59,6.40
2018,01,06,18,00,6.40
2018,01,06,18,01,6.40
2018,01,06,18,02,6.40
2018,01,06,18,03,6.40
2018,01,06,18,04,6.40
2018,01,06,18,05,6.40
2018,01,06,18,06,6.40